Time,TemperatureF,DewpointF,PressureIn,WindDirection,WindDirectionDegrees,WindSpeedMPH,WindSpeedGustMPH,Humidity,HourlyPrecipIn,Conditions,Clouds,dailyrainin,SoftwareType,DateUTC
2013-06-28 00:01:00,73.0,65.0,-100.00,South,170,7.0,10.0,77,0.00,,,-99.99,,2013-06-28 05:01:00,
2013-06-28 00:11:00,73.0,64.0,-100.00,SSE,165,9.0,11.0,73,0.00,,,-99.99,,2013-06-28 05:11:00,
2013-06-28 00:22:00,74.0,64.0,-100.00,South,175,7.0,11.0,72,0.00,,,-99.99,,2013-06-28 05:22:00,
2013-06-28 00:33:00,74.0,64.0,-100.00,South,175,9.0,12.0,70,0.00,,,-99.99,,2013-06-28 05:33:00,
2013-06-28 00:43:00,74.0,63.0,-100.00,South,175,9.0,14.0,68,0.00,,,-99.99,,2013-06-28 05:43:00,
2013-06-28 00:53:00,75.0,63.0,-100.00,South,175,10.0,15.0,68,0.00,,,-99.99,,2013-06-28 05:53:00,
2013-06-28 01:02:00,74.0,63.0,-100.00,South,175,9.0,13.0,68,0.00,,,-99.99,,2013-06-28 06:02:00,
2013-06-28 01:12:00,74.0,63.0,-100.00,South,180,9.0,13.0,68,0.00,,,-99.99,,2013-06-28 06:12:00,
2013-06-28 01:22:00,74.0,63.0,-100.00,South,180,9.0,14.0,68,0.00,,,-99.99,,2013-06-28 06:22:00,
2013-06-28 01:33:00,74.0,63.0,-100.00,South,180,9.0,15.0,68,0.00,,,-99.99,,2013-06-28 06:33:00,
2013-06-28 01:42:00,74.0,63.0,-100.00,South,180,8.0,12.0,67,0.00,,,-99.99,,2013-06-28 06:42:00,
2013-06-28 02:01:00,74.0,63.0,-100.00,South,180,8.0,12.0,67,0.00,,,-99.99,,2013-06-28 07:01:00,
2013-06-28 02:11:00,74.0,63.0,-100.00,South,175,8.0,12.0,68,0.00,,,-99.99,,2013-06-28 07:11:00,
2013-06-28 02:33:00,74.0,63.0,-100.00,South,175,7.0,13.0,67,0.00,,,-99.99,,2013-06-28 07:33:00,
2013-06-28 02:43:00,74.0,62.0,-100.00,South,175,9.0,13.0,67,0.00,,,-99.99,,2013-06-28 07:43:00,
2013-06-28 02:52:00,74.0,63.0,-100.00,South,175,11.0,14.0,68,0.00,,,-99.99,,2013-06-28 07:52:00,
2013-06-28 03:01:00,74.0,63.0,-100.00,South,175,9.0,14.0,67,0.00,,,-99.99,,2013-06-28 08:01:00,
2013-06-28 03:11:00,73.0,63.0,-100.00,South,170,9.0,14.0,68,0.00,,,-99.99,,2013-06-28 08:11:00,
2013-06-28 03:33:00,73.0,63.0,-100.00,South,170,9.0,12.0,71,0.00,,,-99.99,,2013-06-28 08:33:00,
2013-06-28 03:43:00,72.0,63.0,-100.00,South,170,9.0,13.0,71,0.00,,,-99.99,,2013-06-28 08:43:00,
2013-06-28 03:52:00,72.0,63.0,-100.00,South,175,9.0,14.0,71,0.00,,,-99.99,,2013-06-28 08:52:00,
2013-06-28 04:02:00,73.0,63.0,-100.00,SSW,195,8.0,13.0,71,0.00,,,-99.99,,2013-06-28 09:02:00,
2013-06-28 04:11:00,72.0,63.0,-100.00,South,180,7.0,14.0,72,0.00,,,-99.99,,2013-06-28 09:11:00,
2013-06-28 04:33:00,72.0,63.0,-100.00,South,180,7.0,12.0,72,0.00,,,-99.99,,2013-06-28 09:33:00,
2013-06-28 04:42:00,71.0,63.0,-100.00,South,185,7.0,11.0,75,0.00,,,-99.99,,2013-06-28 09:42:00,
2013-06-28 04:52:00,72.0,63.0,-100.00,South,185,8.0,14.0,75,0.00,,,-99.99,,2013-06-28 09:52:00,
2013-06-28 05:42:00,71.0,63.0,-100.00,South,190,11.0,14.0,77,0.00,,,-99.99,,2013-06-28 10:42:00,
2013-06-28 05:52:00,70.0,63.0,-100.00,SSW,200,9.0,13.0,78,0.00,,,-99.99,,2013-06-28 10:52:00,
2013-06-28 06:11:00,70.0,63.0,-100.00,SSW,195,8.0,14.0,79,0.00,,,-99.99,,2013-06-28 11:11:00,
2013-06-28 06:34:00,69.0,63.0,-100.00,South,190,7.0,14.0,80,0.00,,,-99.99,,2013-06-28 11:34:00,
2013-06-28 06:43:00,70.0,63.0,-100.00,SSW,195,7.0,11.0,79,0.00,,,-99.99,,2013-06-28 11:43:00,
2013-06-28 06:53:00,70.0,63.0,-100.00,SSW,195,9.0,11.0,78,0.00,,,-99.99,,2013-06-28 11:53:00,
2013-06-28 07:02:00,70.0,63.0,-100.00,SSW,195,9.0,11.0,78,0.00,,,-99.99,,2013-06-28 12:02:00,
2013-06-28 07:12:00,71.0,63.0,-100.00,SSW,205,6.0,11.0,78,0.00,,,-99.99,,2013-06-28 12:12:00,
2013-06-28 07:22:00,71.0,63.0,-100.00,SSW,205,7.0,10.0,76,0.00,,,-99.99,,2013-06-28 12:22:00,
2013-06-28 07:34:00,72.0,64.0,-100.00,South,190,6.0,11.0,76,0.00,,,-99.99,,2013-06-28 12:34:00,
2013-06-28 07:43:00,72.0,64.0,-100.00,SSW,195,7.0,12.0,75,0.00,,,-99.99,,2013-06-28 12:43:00,
2013-06-28 07:52:00,72.0,64.0,-100.00,SSW,195,7.0,12.0,75,0.00,,,-99.99,,2013-06-28 12:52:00,
2013-06-28 08:11:00,73.0,64.0,-100.00,SSW,205,9.0,12.0,71,0.00,,,-99.99,,2013-06-28 13:11:00,
2013-06-28 08:23:00,74.0,63.0,-100.00,SSW,195,7.0,13.0,68,0.00,,,-99.99,,2013-06-28 13:23:00,
2013-06-28 08:43:00,75.0,62.0,-100.00,South,190,9.0,13.0,65,0.00,,,-99.99,,2013-06-28 13:43:00,
2013-06-28 08:53:00,75.0,63.0,-100.00,South,185,9.0,13.0,65,0.00,,,-99.99,,2013-06-28 13:53:00,
2013-06-28 09:33:00,77.0,63.0,-100.00,South,180,7.0,12.0,60,0.00,,,-99.99,,2013-06-28 14:33:00,
2013-06-28 09:44:00,78.0,62.0,-100.00,South,185,12.0,17.0,58,0.00,,,-99.99,,2013-06-28 14:44:00,
2013-06-28 10:02:00,79.0,63.0,-100.00,SSW,200,8.0,20.0,57,0.00,,,-99.99,,2013-06-28 15:02:00,
2013-06-28 10:11:00,79.0,61.0,-100.00,SSW,195,12.0,19.0,54,0.00,,,-99.99,,2013-06-28 15:11:00,
2013-06-28 10:24:00,80.0,60.0,-100.00,SSW,195,12.0,19.0,52,0.00,,,-99.99,,2013-06-28 15:24:00,
2013-06-28 10:34:00,80.0,60.0,-100.00,SSW,205,9.0,21.0,50,0.00,,,-99.99,,2013-06-28 15:34:00,
2013-06-28 10:43:00,80.0,59.0,-100.00,South,180,16.0,22.0,48,0.00,,,-99.99,,2013-06-28 15:43:00,
2013-06-28 11:01:00,81.0,60.0,-100.00,South,185,8.0,21.0,48,0.00,,,-99.99,,2013-06-28 16:01:00,
2013-06-28 11:24:00,80.0,58.0,-100.00,SW,215,18.0,27.0,47,0.00,,,-99.99,,2013-06-28 16:24:00,
2013-06-28 11:33:00,80.0,58.0,-100.00,SW,215,18.0,27.0,47,0.00,,,-99.99,,2013-06-28 16:33:00,
2013-06-28 11:44:00,82.0,59.0,-100.00,SW,215,13.0,22.0,45,0.00,,,-99.99,,2013-06-28 16:44:00,
2013-06-28 11:53:00,81.0,57.0,-100.00,South,185,19.0,27.0,43,0.00,,,-99.99,,2013-06-28 16:53:00,
2013-06-28 12:22:00,82.0,57.0,-100.00,SSW,195,22.0,29.0,42,0.00,,,-99.99,,2013-06-28 17:22:00,
2013-06-28 12:33:00,82.0,57.0,-100.00,South,180,16.0,33.0,42,0.00,,,-99.99,,2013-06-28 17:33:00,
2013-06-28 12:44:00,82.0,58.0,-100.00,SSW,195,16.0,27.0,43,0.00,,,-99.99,,2013-06-28 17:44:00,
2013-06-28 12:52:00,82.0,56.0,-100.00,South,185,20.0,30.0,42,0.00,,,-99.99,,2013-06-28 17:52:00,
2013-06-28 13:11:00,83.0,57.0,-100.00,South,190,21.0,32.0,41,0.00,,,-99.99,,2013-06-28 18:11:00,
2013-06-28 13:33:00,83.0,57.0,-100.00,South,190,16.0,30.0,41,0.00,,,-99.99,,2013-06-28 18:33:00,
2013-06-28 13:43:00,83.0,57.0,-100.00,South,170,20.0,30.0,40,0.00,,,-99.99,,2013-06-28 18:43:00,
2013-06-28 13:52:00,83.0,57.0,-100.00,South,190,21.0,29.0,40,0.00,,,-99.99,,2013-06-28 18:52:00,
2013-06-28 14:11:00,83.0,56.0,-100.00,South,175,19.0,32.0,39,0.00,,,-99.99,,2013-06-28 19:11:00,
2013-06-28 14:22:00,83.0,56.0,-100.00,South,175,19.0,32.0,39,0.00,,,-99.99,,2013-06-28 19:22:00,
2013-06-28 14:33:00,84.0,56.0,-100.00,South,185,13.0,29.0,39,0.00,,,-99.99,,2013-06-28 19:33:00,
2013-06-28 14:43:00,85.0,56.0,-100.00,South,180,18.0,34.0,38,0.00,,,-99.99,,2013-06-28 19:43:00,
2013-06-28 14:53:00,84.0,56.0,-100.00,South,175,21.0,35.0,38,0.00,,,-99.99,,2013-06-28 19:53:00,
2013-06-28 15:22:00,85.0,55.0,-100.00,South,170,21.0,30.0,36,0.00,,,-99.99,,2013-06-28 20:22:00,
2013-06-28 15:33:00,83.0,55.0,-100.00,South,185,16.0,31.0,38,0.00,,,-99.99,,2013-06-28 20:33:00,
2013-06-28 15:43:00,85.0,56.0,-100.00,South,180,21.0,35.0,36,0.00,,,-99.99,,2013-06-28 20:43:00,
2013-06-28 15:52:00,85.0,56.0,-100.00,SSW,200,19.0,31.0,37,0.00,,,-99.99,,2013-06-28 20:52:00,
2013-06-28 16:23:00,85.0,55.0,-100.00,South,180,16.0,32.0,36,0.00,,,-99.99,,2013-06-28 21:23:00,
2013-06-28 16:34:00,84.0,56.0,-100.00,South,175,14.0,30.0,37,0.00,,,-99.99,,2013-06-28 21:34:00,
2013-06-28 16:43:00,84.0,55.0,-100.00,SSE,160,20.0,29.0,36,0.00,,,-99.99,,2013-06-28 21:43:00,
2013-06-28 17:11:00,83.0,54.0,-100.00,South,175,17.0,26.0,36,0.00,,,-99.99,,2013-06-28 22:11:00,
2013-06-28 17:22:00,84.0,55.0,-100.00,South,185,12.0,26.0,37,0.00,,,-99.99,,2013-06-28 22:22:00,
2013-06-28 17:34:00,84.0,54.0,-100.00,SSE,165,17.0,30.0,36,0.00,,,-99.99,,2013-06-28 22:34:00,
2013-06-28 17:43:00,85.0,54.0,-100.00,SSE,165,18.0,29.0,35,0.00,,,-99.99,,2013-06-28 22:43:00,
2013-06-28 17:52:00,84.0,54.0,-100.00,South,170,17.0,29.0,35,0.00,,,-99.99,,2013-06-28 22:52:00,
2013-06-28 18:02:00,84.0,54.0,-100.00,South,170,17.0,29.0,35,0.00,,,-99.99,,2013-06-28 23:02:00,
2013-06-28 18:11:00,84.0,53.0,-100.00,SSE,155,17.0,32.0,35,0.00,,,-99.99,,2013-06-28 23:11:00,
2013-06-28 18:23:00,84.0,53.0,-100.00,SSE,155,17.0,32.0,35,0.00,,,-99.99,,2013-06-28 23:23:00,
2013-06-28 18:34:00,83.0,53.0,-100.00,SSE,165,17.0,26.0,35,0.00,,,-99.99,,2013-06-28 23:34:00,
2013-06-28 18:43:00,84.0,54.0,-100.00,SSE,165,14.0,34.0,35,0.00,,,-99.99,,2013-06-28 23:43:00,
2013-06-28 19:02:00,83.0,53.0,-100.00,SSE,155,19.0,28.0,36,0.00,,,-99.99,,2013-06-29 00:02:00,
2013-06-28 19:11:00,82.0,54.0,-100.00,SSE,160,11.0,25.0,37,0.00,,,-99.99,,2013-06-29 00:11:00,
2013-06-28 19:22:00,83.0,55.0,-100.00,South,170,11.0,28.0,38,0.00,,,-99.99,,2013-06-29 00:22:00,
2013-06-28 19:33:00,83.0,55.0,-100.00,South,170,11.0,28.0,38,0.00,,,-99.99,,2013-06-29 00:33:00,
2013-06-28 19:42:00,82.0,55.0,-100.00,SSE,160,12.0,26.0,39,0.00,,,-99.99,,2013-06-29 00:42:00,
2013-06-28 20:01:00,81.0,55.0,-100.00,South,175,15.0,22.0,39,0.00,,,-99.99,,2013-06-29 01:01:00,
2013-06-28 20:11:00,81.0,55.0,-100.00,South,175,12.0,20.0,40,0.00,,,-99.99,,2013-06-29 01:11:00,
2013-06-28 20:32:00,80.0,55.0,-100.00,South,170,14.0,20.0,41,0.00,,,-99.99,,2013-06-29 01:32:00,
2013-06-28 20:42:00,79.0,54.0,-100.00,South,180,10.0,20.0,42,0.00,,,-99.99,,2013-06-29 01:42:00,
2013-06-28 20:51:00,79.0,54.0,-100.00,South,180,10.0,20.0,42,0.00,,,-99.99,,2013-06-29 01:51:00,
2013-06-28 21:01:00,78.0,55.0,-100.00,South,185,9.0,14.0,45,0.00,,,-99.99,,2013-06-29 02:01:00,
2013-06-28 21:11:00,77.0,55.0,-100.00,South,175,11.0,16.0,46,0.00,,,-99.99,,2013-06-29 02:11:00,
2013-06-28 21:31:00,76.0,56.0,-100.00,South,175,9.0,14.0,48,0.00,,,-99.99,,2013-06-29 02:31:00,
2013-06-28 21:41:00,76.0,56.0,-100.00,South,185,7.0,12.0,50,0.00,,,-99.99,,2013-06-29 02:41:00,
2013-06-28 21:51:00,75.0,56.0,-100.00,South,175,7.0,12.0,51,0.00,,,-99.99,,2013-06-29 02:51:00,
2013-06-28 22:11:00,74.0,56.0,-100.00,South,180,7.0,12.0,52,0.00,,,-99.99,,2013-06-29 03:11:00,
2013-06-28 22:21:00,74.0,56.0,-100.00,South,180,7.0,11.0,54,0.00,,,-99.99,,2013-06-29 03:21:00,
2013-06-28 22:32:00,73.0,56.0,-100.00,South,175,7.0,11.0,55,0.00,,,-99.99,,2013-06-29 03:32:00,
2013-06-28 22:41:00,73.0,57.0,-100.00,South,180,6.0,11.0,57,0.00,,,-99.99,,2013-06-29 03:41:00,
2013-06-28 23:23:00,72.0,58.0,-100.00,South,180,7.0,14.0,59,0.00,,,-99.99,,2013-06-29 04:23:00,
2013-06-28 23:32:00,72.0,58.0,-100.00,South,175,6.0,9.0,61,0.00,,,-99.99,,2013-06-29 04:32:00,
2013-06-28 23:41:00,71.0,58.0,-100.00,South,170,7.0,10.0,64,0.00,,,-99.99,,2013-06-29 04:41:00,